Location: Mascot Post Office (historical)
(40.2645°N, 99.5462°W)
Time: 16:58:16
(UTC+00:00)

Cosmos 1066 Rocket - Pass Details

Date: 14 July 2020
Orbit: 799 x 893 km, 81.2° (Epoch: 05 August)

Event Time Altitude Azimuth Distance (km) Brightness Sun altitude
Rises 09:36:20 0° 346° (NNW) 3,513 7.9 -16.3°
Reaches altitude 10° 09:38:49 10° 344° (NNW) 2,571 7.1 -16.0°
Maximum altitude 09:44:36 62° 265° (W) 1,002 4.3 -15.3°
Enters shadow 09:49:37 14° 187° (S) 2,283 6.0 -14.6°
